CST,Max TemperatureF,Mean TemperatureF,Min TemperatureF,Max Dew PointF,MeanDew PointF,Min DewpointF,Max Humidity, Mean Humidity, Min Humidity, Max Sea Level PressureIn, Mean Sea Level PressureIn, Min Sea Level PressureIn, Max VisibilityMiles, Mean VisibilityMiles, Min VisibilityMiles, Max Wind SpeedMPH, Mean Wind SpeedMPH, Max Gust SpeedMPH,PrecipitationIn, CloudCover, Events, WindDirDegrees
2012-11-1,48,39,30,34,28,23,93,65,43,30.02,29.95,29.92,10,10,10,17,6,38,0.00,3,,338
2012-11-2,42,34,26,27,25,21,80,69,49,30.13,30.07,30.02,10,10,10,12,4,,0.00,2,,72
2012-11-3,46,40,33,32,27,23,87,63,43,30.19,30.17,30.12,10,10,10,7,1,,0.00,8,,348
2012-11-4,46,40,35,37,34,32,93,79,57,30.21,30.15,30.09,10,9,7,10,4,,0.03,8,Rain,126
2012-11-5,42,38,35,37,35,32,100,85,66,30.17,30.11,29.98,10,6,2,14,7,18,0.01,8,Rain,145
2012-11-6,44,40,37,37,35,32,100,85,66,29.98,29.89,29.82,10,8,2,24,15,39,0.07,8,Rain,282
2012-11-7,41,36,32,34,32,30,93,82,65,30.12,30.07,29.98,10,10,10,14,7,18,0.00,6,,350
2012-11-8,55,44,32,36,33,30,93,75,44,30.08,29.97,29.92,10,10,10,20,9,23,0.00,0,,151
2012-11-9,53,43,33,39,36,32,93,75,51,29.96,29.90,29.82,10,9,5,18,7,24,0.00,3,,100
2012-11-10,75,60,46,54,48,39,94,69,38,29.81,29.62,29.51,10,8,3,26,16,34,0.09,5,Rain,157
2012-11-11,55,37,19,52,29,12,94,80,64,30.01,29.80,29.59,10,9,2,20,12,26,0.12,7,Rain,293
2012-11-12,28,24,19,18,15,12,86,72,55,30.32,30.13,30.01,10,10,5,22,11,28,0.00,4,Snow,274
2012-11-13,44,29,14,28,20,10,93,70,39,30.37,30.32,30.27,10,10,10,14,5,18,0.00,2,,163
2012-11-14,53,42,32,32,29,23,87,66,33,30.29,30.23,30.18,10,10,10,15,8,18,0.00,2,,193
2012-11-15,51,40,30,32,29,23,87,65,44,30.43,30.26,30.15,10,10,10,16,10,21,0.00,1,,287
2012-11-16,46,32,19,28,22,16,93,69,34,30.45,30.40,30.33,10,10,7,9,4,,0.00,0,,157
2012-11-17,57,44,32,34,31,28,93,65,36,30.34,30.27,30.21,10,9,7,21,11,29,0.00,2,,154
2012-11-18,57,48,39,32,29,27,65,49,31,30.23,30.14,30.10,10,10,10,21,15,25,0.00,3,,160
2012-11-19,59,46,32,37,34,30,100,65,42,30.11,30.04,29.99,10,9,2,16,10,22,0.00,2,,167
2012-11-20,55,42,30,36,31,27,100,77,33,30.18,30.13,30.07,10,8,2,8,5,,0.00,0,,294
2012-11-21,69,51,33,37,34,30,87,53,25,30.09,29.95,29.78,10,10,10,23,11,29,0.00,0,,187
2012-11-22,59,46,32,39,32,21,81,59,38,30.04,29.81,29.68,10,10,10,29,17,40,0.00,2,,254
2012-11-23,32,24,14,21,12,10,86,61,44,30.36,30.26,30.05,10,10,4,32,23,43,0.00,4,Snow,320
2012-11-24,30,20,10,18,13,5,92,70,47,30.33,30.07,29.80,10,10,10,18,6,22,0.00,4,,170
2012-11-25,33,27,21,23,20,16,86,69,60,30.15,29.96,29.80,10,10,10,15,7,18,0.00,2,,325
2012-11-26,28,17,6,18,6,1,85,59,43,30.39,30.32,30.16,10,10,10,20,10,22,0.00,2,,334
2012-11-27,33,19,5,19,12,1,86,66,44,30.37,30.23,30.12,10,10,7,17,5,24,0.00,2,,212
2012-11-28,41,28,14,27,20,12,100,77,45,30.36,30.24,30.09,10,8,0,12,4,,0.00,2,Fog,180
2012-11-29,48,34,19,30,25,18,100,75,46,30.09,30.01,29.95,10,9,5,7,3,,0.00,0,,107
2012-11-30,42,36,30,34,30,27,100,85,66,30.09,30.05,29.97,10,6,2,14,6,22,0.00,2,,89